Preview of NWS' New Version of Forecast
This preview is not operational and should not be used for support decisions.

Regional Weather Roundup (RWR)

Issued by National Weather Service (NWS)

                            
000
ASUS45 KBOU 231710
RWRCO 

WEATHER ROUNDUP FOR COLORADO
NATIONAL WEATHER SERVICE DENVER/BOULDER CO
1000 AM MST SAT FEB 23 2019

NOTE: "FAIR" INDICATES FEW OR NO CLOUDS BELOW 12000 FEET WITH NO
SIGNIFICANT WEATHER AND/OR OBSTRUCTIONS TO VISIBILITY.

COZ001>005-013-030-031-231800-
...NORTHWEST COLORADO...
  
CITY           SKY/WX    TMP DP  RH WIND       PRES   REMARKS
CRAIG          FAIR       2   0  91 CALM      30.10R                  
HAYDEN         FAIR      10   0  63 CALM      30.07R                  
MEEKER         FAIR      10   2  69 CALM      30.08R                  
RANGELY        FAIR       8   1  74 CALM      30.15R                  
RABBIT EARS PA FAIR       1  -2  85 W10G20    29.83R WCI -14          
STEAMBOAT SPGS FAIR       6   3  84 CALM      30.03S                  
WALDEN         FAIR       7  -6  56 SE6       29.93R WCI  -3          
$$

COZ006>008-011-231800-
...WEST CENTRAL VALLEYS...
  
CITY           SKY/WX    TMP DP  RH WIND       PRES   REMARKS
GRAND JUNCTION FAIR      26  12  55 CALM      30.15R                  
MONTROSE       FAIR      20   9  62 SE3       30.15R                  
EAGLE          FAIR      26   9  48 W5        30.06R WCI  20          
RIFLE          FAIR      21   5  50 NW7       30.11R WCI  12          
DELTA          CLOUDY    26  13  58 NE6       30.15R WCI  19          
NUCLA          FAIR      21  12  68 CALM      30.14R                  
$$

COZ017>023-064>068-231800-
...SOUTHWEST COLORADO...
  
CITY           SKY/WX    TMP DP  RH WIND       PRES   REMARKS
DURANGO        FAIR      20  12  71 CALM      29.98R                  
CORTEZ         FAIR      25   9  50 NW8       30.09R WCI  16          
PAGOSA SPRINGS LGT SNOW  21  18  88 S7        29.95R WCI  12          
TELLURIDE      LGT SNOW  12   9  85 CALM      29.99R                  
WOLF CREEK PAS   N/A      5   3  92 W3        29.87R                  
$$

COZ009-010-012-014-032>034-037-058>063-231800-
...CENTRAL COLORADO...
  
CITY           SKY/WX    TMP DP  RH WIND       PRES   REMARKS
ASPEN          FAIR      16   6  65 CALM      29.98R                  
BUENA VISTA    FAIR      20   3  47 NW21G31   29.84S HAZE    WCI   4  
COPPER MTN     FAIR       1  -6  71 MISG      29.77S                  
BERTHOUD PASS  PTSUNNY   -6 -17  59 NW33G48   29.65R WCI -35          
DAKOTA HILL    FAIR       3 -13  47 NW22      29.68R WCI -19          
COTTONWOOD PAS FAIR      18  -6  35 W23G37    29.78S HAZE    WCI   0  
GUNNISON       FAIR      17   6  62 W10       29.98R WCI   5          
GRANBY         FAIR      10  -3  55 W9        29.95S WCI  -3          
KREMMLING      FAIR      14   3  62 E5        30.00S WCI   6          
LEADVILLE      FAIR      10  -4  53 N12       29.82F WCI  -5          
MONARCH PASS   CLOUDY     0  -4  85 W48G55    29.82R WCI -31          
SALIDA         FAIR      24   7  48 NW10      29.93R WCI  13          
SUNLIGHT       FAIR     N/A N/A N/A W6G20     29.93R                  
WILKERSON PASS LGT SNOW  10  -2  56 NW14G22   29.75R WCI  -5          
$$

COZ069>075-231800-
...SAN LUIS VALLEY/SANGRE DE CRISTO MOUNTAINS...
  
CITY           SKY/WX    TMP DP  RH WIND       PRES   REMARKS
ALAMOSA        FAIR      26  12  55 N15       29.85R WCI  14          
DEL NORTE      FAIR      27   6  41 W15       29.86R WCI  15          
LA VETA PASS   NOT AVBL                                               
SAGUACHE       FAIR      21   9  58 CALM      29.87R                  
$$

COZ035-036-038>040-231800-
...NORTHERN COLORADO FRONT RANGE...
  
CITY           SKY/WX    TMP DP  RH WIND       PRES   REMARKS
DENVER INTL AP PTSUNNY   24  21  88 SW6       29.82R WCI  17          
AURORA         PTSUNNY   23  23 100 SW3       29.82R                  
FRONT RANGE AP PTSUNNY   23  21  93 CALM      29.83R                  
ERIE MUNI ARPT FAIR      29  25  84 CALM      29.88S                  
BOULDER MUN AP FAIR      32  19  59 SE5       29.80S WCI  27          
CENTENNIAL     PTSUNNY   23  20  88 W6        29.80S WCI  16          
BROOMFIELD     NOT AVBL                                               
FORT COLLINS   FAIR      32  28  85 S5        29.83F WCI  27          
LONGMONT       FAIR      33  24  71 E6        29.84S WCI  27          
$$

COZ041-046-047-076>085-087-088-231800-
...PIKES PEAK/PALMER DIVIDE AND SOUTHERN FOOTHILLS...
  
CITY           SKY/WX    TMP DP  RH WIND       PRES   REMARKS
COLO. SPRINGS  PTSUNNY   31  14  49 NW12      29.78S WCI  22          
A. F. ACADEMY  MOSUNNY   28  14  55 N10       29.76S WCI  19          
SCHRIEVER AFB  NOT AVBL                                               
CHEYENNE MTN   PTSUNNY   28  17  64 E3        29.72R                  
ELLICOTT         N/A    N/A N/A N/A N17       29.77R                  
FALCON         FAIR      28  13  52 NW14G23   29.76R WCI  17          
FORT CARSON    FAIR      31  16  53 NW7       29.78S WCI  24          
LIMON          CLOUDY    21  14  74 N18       29.80R WCI   6          
MONUMENT HILL  FAIR      19  16  86 W8        29.78S WCI   9          
CANON CITY     FAIR      34  21  60 W5        29.81R WCI  30          
WALSENBURG     NOT AVBL                                               
TRINIDAD       PTSUNNY   28  22  78 N16       29.83R WCI  16          
$$

COZ042>045-048>051-090-091-231800-
...NORTHEAST COLORADO...
  
CITY           SKY/WX    TMP DP  RH WIND       PRES   REMARKS
GREELEY ARPT   FAIR      32  24  72 S6        29.85F WCI  26          
AKRON          PTSUNNY   21  16  81 N10       29.82S WCI  10          
BURLINGTON     FOG       24  21  88 N24G39    29.77R VSB 1/2 WCI   8  
WRAY           CLOUDY    28  21  74 N17G29    29.82S WCI  16          
YUMA           CLOUDY    23  18  80 NW8       29.82S WCI  14          
STERLING       FAIR      27  18  69 N9        29.85R WCI  17          
HOLYOKE        FAIR      28  21  74 NW13      29.84S WCI  18          
FORT MORGAN      N/A     26  13  59 N20       29.85R WCI  12          
$$

COZ086-089-092>099-231800-
...SOUTHEAST COLORADO...
  
CITY           SKY/WX    TMP DP  RH WIND       PRES   REMARKS
PUEBLO         FAIR      37  24  59 CALM      29.83R                  
LA JUNTA       CLOUDY    28  22  78 N21G28    29.86R WCI  15          
LAMAR          CLOUDY    27  23  85 N28G39    29.80R FOG     WCI  11  
SPRINGFIELD      N/A     24  23  96 N32G48    29.75R WCI   6          
$$